KD4TJG Weather Reports


Display with metric or nautical units.
time (UTC)temp
F
wind
direction
speed
MPH
gust
MPH
rain 1hr
in
rain 24hr
in
rain mn
in
humidity
%
barometer
mb
20260903182525 98 149 2.0 8.0 0.00 0.00 0.00 45 1017.0
20260903182332 98 226 3.0 6.0 0.00 0.00 0.00 47 1019.1
20260903182024 98 212 3.0 8.0 0.00 0.00 0.00 44 1017.1
20260903181547 97 137 3.0 8.0 0.00 0.00 0.00 46 1017.2
20260903181323 98 160 2.0 6.0 0.00 0.00 0.00 45 1019.2
20260903181024 97 306 3.0 8.0 0.00 0.00 0.00 46 1017.2
20260903180527 97 0 1.0 4.0 0.00 0.00 0.00 46 1017.2
20260903180331 97 135 1.0 3.0 0.00 0.00 0.00 47 1019.2
20260903180111 95 121 1.0 4.0 0.00 0.00 0.00 48 1017.3
20260903175522 94 115 1.0 6.0 0.00 0.00 0.00 50 1017.3
20260903175024 94 60 1.0 6.0 0.00 0.00 0.00 49 1017.5
20260903174542 95 199 3.0 6.0 0.00 0.00 0.00 51 1017.5
20260903174244 96 168 1.0 5.0 0.00 0.00 0.00 49 1019.6
20260903174023 96 137 2.0 6.0 0.00 0.00 0.00 49 1017.6
20260903173525 96 146 1.0 6.0 0.00 0.00 0.00 47 1017.5
20260903173306 97 201 2.0 8.0 0.00 0.00 0.00 48 1019.6
20260903173049 96 193 2.0 5.0 0.00 0.00 0.00 49 1017.6
20260903172529 95 176 2.0 10.0 0.00 0.00 0.00 50 1017.7
20260903172026 96 100 3.0 10.0 0.00 0.00 0.00 46 1017.7
20260903171551 97 124 5.0 10.0 0.00 0.00 0.00 46 1017.8
20260903171123 96 156 1.0 6.0 0.00 0.00 0.00 46 1019.9
20260903171024 95 80 4.0 8.0 0.00 0.00 0.00 48 1017.9
20260903170528 95 108 1.0 4.0 0.00 0.00 0.00 49 1017.9
20260903170126 96 326 1.0 3.0 0.00 0.00 0.00 50 1020.0
20260903170041 95 240 1.0 4.0 0.00 0.00 0.00 50 1018.0
20260903165525 94 0 1.0 4.0 0.00 0.00 0.00 50 1018.0
20260903165115 96 359 2.0 7.0 0.00 0.00 0.00 49 1020.1
20260903165025 95 16 2.0 4.0 0.00 0.00 0.00 48 1018.1
20260903164559 96 116 2.0 8.0 0.00 0.00 0.00 48 1018.1
20260903164029 95 71 2.0 8.0 0.00 0.00 0.00 49 1018.2
20260903163527 95 90 3.0 7.0 0.00 0.00 0.00 49 1018.2
20260903163047 95 91 3.0 7.0 0.00 0.00 0.00 49 1018.3
20260903162932 96 114 2.0 6.0 0.00 0.00 0.00 50 1020.4
20260903162524 94 124 2.0 4.0 0.00 0.00 0.00 49 1018.3
20260903162024 94 0 2.0 5.0 0.00 0.00 0.00 51 1018.4
20260903161914 95 287 1.0 4.0 0.00 0.00 0.00 50 1020.4
20260903161544 94 315 2.0 5.0 0.00 0.00 0.00 51 1018.3
20260903161023 95 235 3.0 5.0 0.00 0.00 0.00 50 1018.4
20260903160919 95 238 1.0 3.0 0.00 0.00 0.00 50 1020.5
20260903160523 95 297 2.0 5.0 0.00 0.00 0.00 50 1018.4
20260903160050 95 104 1.0 7.0 0.00 0.00 0.00 50 1018.5
20260903155918 95 14 1.0 5.0 0.00 0.00 0.00 51 1020.5
20260903155530 94 359 1.0 7.0 0.00 0.00 0.00 52 1018.5
20260903155025 94 188 2.0 7.0 0.00 0.00 0.00 50 1018.5
20260903154548 94 355 2.0 6.0 0.00 0.00 0.00 50 1018.6
20260903154026 94 112 1.0 5.0 0.00 0.00 0.00 51 1018.6
20260903153821 94 178 1.0 3.0 0.00 0.00 0.00 50 1020.7
20260903153526 94 72 2.0 5.0 0.00 0.00 0.00 52 1018.6
20260903153045 93 120 0.0 3.0 0.00 0.00 0.00 55 1018.6
20260903152828 93 236 0.0 4.0 0.00 0.00 0.00 57 1020.8
20260903152526 92 355 1.0 3.0 0.00 0.00 0.00 55 1018.8
20260903152026 92 341 1.0 5.0 0.00 0.00 0.00 55 1018.8
20260903151828 93 312 1.0 4.0 0.00 0.00 0.00 56 1020.8
20260903151540 92 234 1.0 5.0 0.00 0.00 0.00 58 1018.8
20260903151025 92 260 0.0 3.0 0.00 0.00 0.00 61 1018.8
20260903150758 92 85 0.0 0.0 0.00 0.00 0.00 59 1020.8
20260903150527 91 355 1.0 2.0 0.00 0.00 0.00 59 1018.8
20260903150054 91 347 0.0 3.0 0.00 0.00 0.00 61 1018.8
20260903145730 91 181 1.0 4.0 0.00 0.00 0.00 62 1020.8
20260903145525 91 187 1.0 4.0 0.00 0.00 0.00 60 1018.7
20260903145025 90 0 1.0 6.0 0.00 0.00 0.00 61 1018.7
20260903144755 90 144 2.0 4.0 0.00 0.00 0.00 61 1020.7
20260903144548 90 139 2.0 6.0 0.00 0.00 0.00 62 1018.8
20260903144023 90 122 2.0 4.0 0.00 0.00 0.00 61 1018.8
20260903143815 90 140 1.0 3.0 0.00 0.00 0.00 62 1020.7
20260903143523 89 213 1.0 4.0 0.00 0.00 0.00 64 1018.7
20260903143048 89 210 2.0 4.0 0.00 0.00 0.00 63 1018.7
20260903142828 89 139 1.0 3.0 0.00 0.00 0.00 65 1020.8
20260903142525 88 195 1.0 4.0 0.00 0.00 0.00 63 1018.8
20260903142025 88 140 2.0 4.0 0.00 0.00 0.00 67 1018.7
20260903141805 88 148 1.0 2.0 0.00 0.00 0.00 68 1020.8
20260903141554 88 139 1.0 3.0 0.00 0.00 0.00 69 1018.8
20260903141026 87 215 0.0 3.0 0.00 0.00 0.00 69 1018.7
20260903140524 86 250 1.0 2.0 0.00 0.00 0.00 72 1018.7
20260903140049 85 0 0.0 2.0 0.00 0.00 0.00 72 1018.7
20260903135636 85 277 0.0 1.0 0.00 0.00 0.00 74 1020.8
20260903135525 85 280 1.0 2.0 0.00 0.00 0.00 74 1018.7
20260903135023 84 328 0.0 2.0 0.00 0.00 0.00 75 1018.7
20260903134645 84 8 0.0 1.0 0.00 0.00 0.00 75 1020.8
20260903134545 83 335 0.0 2.0 0.00 0.00 0.00 75 1018.7
20260903134023 83 0 0.0 2.0 0.00 0.00 0.00 76 1018.7
20260903133524 83 0 0.0 2.0 0.00 0.00 0.00 78 1018.6
20260903133042 82 63 0.0 2.0 0.00 0.00 0.00 79 1018.6
20260903132521 81 0 0.0 2.0 0.00 0.00 0.00 79 1018.8
20260903132511 82 353 0.0 0.0 0.00 0.00 0.00 79 1020.7
20260903132024 81 0 0.0 2.0 0.00 0.00 0.00 81 1018.9
20260903131543 80 327 0.0 1.0 0.00 0.00 0.00 81 1018.8
20260903131454 81 327 0.0 0.0 0.00 0.00 0.00 81 1020.8
20260903131026 80 0 0.0 3.0 0.00 0.00 0.00 82 1018.9
20260903130525 79 0 0.0 3.0 0.00 0.00 0.00 83 1018.9
20260903130509 80 33 0.0 0.0 0.00 0.00 0.00 83 1020.9
20260903130111 79 34 1.0 3.0 0.00 0.00 0.00 84 1018.9
20260903125526 78 330 0.0 3.0 0.00 0.00 0.00 85 1018.9
20260903125455 78 330 0.0 0.0 0.00 0.00 0.00 85 1020.9
20260903125025 78 0 0.0 3.0 0.00 0.00 0.00 86 1018.9
20260903124547 77 97 0.0 2.0 0.00 0.00 0.00 87 1018.9
20260903124022 76 97 0.0 1.0 0.00 0.00 0.00 87 1018.8
20260903123522 76 0 0.0 1.0 0.00 0.00 0.00 87 1018.7
20260903123246 76 97 0.0 0.0 0.00 0.00 0.00 88 1020.8
20260903123042 75 97 0.0 1.0 0.00 0.00 0.00 88 1018.7
20260903122524 74 97 0.0 2.0 0.00 0.00 0.00 88 1018.7
20260903122243 74 97 0.0 0.0 0.00 0.00 0.00 88 1020.8
20260903122024 74 97 0.0 2.0 0.00 0.00 0.00 88 1018.7
20260903121553 73 0 0.0 0.0 0.00 0.00 0.00 88 1018.7
20260903121302 73 191 0.0 0.0 0.00 0.00 0.00 88 1020.8
20260903121025 72 0 0.0 1.0 0.00 0.00 0.00 88 1018.7
20260903120524 72 0 0.0 1.0 0.00 0.00 0.00 88 1018.7
20260903120305 72 191 0.0 0.0 0.00 0.00 0.00 88 1020.7
20260903120058 72 0 0.0 1.0 0.00 0.00 0.00 88 1018.8
20260903115524 71 0 0.0 1.0 0.00 0.00 0.00 88 1018.7
20260903115325 72 191 0.0 0.0 0.00 0.00 0.00 88 1020.7
20260903115025 71 0 0.0 1.0 0.00 0.00 0.00 88 1018.6
20260903114551 71 0 0.0 0.0 0.00 0.00 0.00 88 1018.6
20260903114341 71 191 0.0 0.0 0.00 0.00 0.00 88 1020.5
20260903114022 70 0 0.0 0.0 0.00 0.00 0.00 88 1018.5
20260903113524 70 0 0.0 0.0 0.00 0.00 0.00 88 1018.4
20260903113406 71 191 0.0 0.0 0.00 0.00 0.00 88 1020.3
20260903113043 70 0 0.0 0.0 0.00 0.00 0.00 88 1018.3
20260903112527 70 0 0.0 0.0 0.00 0.00 0.00 88 1018.3
20260903112027 70 0 0.0 0.0 0.00 0.00 0.00 88 1018.2
20260903111552 70 0 0.0 0.0 0.00 0.00 0.00 88 1018.2
20260903111206 70 191 0.0 0.0 0.00 0.00 0.00 88 1020.2
20260903111024 70 0 0.0 1.0 0.00 0.00 0.00 88 1018.1
20260903110526 70 0 0.0 1.0 0.00 0.00 0.00 88 1018.1
20260903110214 70 191 0.0 0.0 0.00 0.00 0.00 88 1020.1
20260903110109 69 0 0.0 0.0 0.00 0.00 0.00 88 1018.0
20260903105524 70 0 0.0 1.0 0.00 0.00 0.00 88 1017.9
20260903105214 70 191 0.0 0.0 0.00 0.00 0.00 88 1020.0
20260903105024 70 0 0.0 1.0 0.00 0.00 0.00 88 1018.0
20260903104554 70 0 0.0 2.0 0.00 0.00 0.00 88 1017.9
20260903104228 70 191 0.0 0.0 0.00 0.00 0.00 88 1020.0
20260903104026 70 191 0.0 2.0 0.00 0.00 0.00 88 1018.0
20260903103529 70 191 0.0 1.0 0.00 0.00 0.00 88 1018.0
20260903103052 70 0 0.0 1.0 0.00 0.00 0.00 88 1018.0
20260903102526 70 0 0.0 1.0 0.00 0.00 0.00 88 1017.9
20260903102035 70 191 0.0 0.0 0.00 0.00 0.00 88 1020.0
20260903102024 70 0 0.0 1.0 0.00 0.00 0.00 88 1017.9
20260903101604 70 0 0.0 1.0 0.00 0.00 0.00 88 1017.9
20260903101054 70 191 0.0 0.0 0.00 0.00 0.00 88 1020.0
20260903101026 70 191 0.0 1.0 0.00 0.00 0.00 88 1017.9
20260903100524 70 0 0.0 1.0 0.00 0.00 0.00 88 1017.9
20260903100049 70 0 0.0 1.0 0.00 0.00 0.00 88 1017.9
20260903095525 70 0 0.0 1.0 0.00 0.00 0.00 88 1017.9
20260903095107 71 191 0.0 0.0 0.00 0.00 0.00 88 1020.0
20260903095023 70 0 0.0 1.0 0.00 0.00 0.00 88 1017.9
20260903094553 70 0 0.0 1.0 0.00 0.00 0.00 88 1017.9
20260903094109 71 191 0.0 0.0 0.00 0.00 0.00 88 1020.0
20260903094024 71 0 0.0 1.0 0.00 0.00 0.00 88 1018.0
20260903093526 71 0 0.0 2.0 0.00 0.00 0.00 88 1017.9
20260903093058 71 191 0.0 1.0 0.00 0.00 0.00 88 1019.9
20260903093053 70 191 0.0 2.0 0.00 0.00 0.00 88 1017.9
20260903092526 71 272 0.0 1.0 0.00 0.00 0.00 88 1017.9
20260903092028 71 0 0.0 1.0 0.00 0.00 0.00 88 1017.9
20260903091548 71 0 0.0 1.0 0.00 0.00 0.00 88 1017.9
20260903091024 71 0 0.0 2.0 0.00 0.00 0.00 88 1017.9
20260903091000 72 272 0.0 0.0 0.00 0.00 0.00 88 1019.9
20260903090525 71 0 0.0 2.0 0.00 0.00 0.00 88 1017.7
20260903090051 71 0 0.0 2.0 0.00 0.00 0.00 88 1017.6
20260903090008 71 272 0.0 0.0 0.00 0.00 0.00 88 1019.8
20260903085523 71 329 0.0 2.0 0.00 0.00 0.00 88 1017.8
20260903085022 71 0 0.0 1.0 0.00 0.00 0.00 88 1017.6
20260903085006 71 218 0.0 0.0 0.00 0.00 0.00 88 1019.7
20260903084554 71 0 0.0 1.0 0.00 0.00 0.00 88 1017.5
20260903084025 71 0 0.0 1.0 0.00 0.00 0.00 88 1017.6
20260903083931 72 218 0.0 0.0 0.00 0.00 0.00 88 1019.6
20260903083525 71 0 0.0 0.0 0.00 0.00 0.00 88 1017.4
20260903083050 71 0 0.0 0.0 0.00 0.00 0.00 88 1017.4
20260903082858 72 218 0.0 0.0 0.00 0.00 0.00 88 1019.4
20260903082525 71 0 0.0 0.0 0.00 0.00 0.00 88 1017.4
20260903082024 71 0 0.0 0.0 0.00 0.00 0.00 88 1017.4
20260903081908 72 218 0.0 0.0 0.00 0.00 0.00 88 1019.4
20260903081549 71 0 0.0 1.0 0.00 0.00 0.00 87 1017.4
20260903081024 71 0 0.0 1.0 0.00 0.00 0.00 87 1017.4
20260903080855 72 218 0.0 0.0 0.00 0.00 0.00 87 1019.5
20260903080524 71 0 0.0 1.0 0.00 0.00 0.00 87 1017.5
20260903080048 71 0 0.0 0.0 0.00 0.00 0.00 88 1017.6
20260903075848 72 218 0.0 0.0 0.00 0.00 0.00 88 1019.5
20260903075524 71 0 0.0 0.0 0.00 0.00 0.00 88 1017.5
20260903075022 71 0 0.0 0.0 0.00 0.00 0.00 88 1017.5
20260903074853 72 218 0.0 0.0 0.00 0.00 0.00 88 1019.5
20260903074544 71 0 0.0 0.0 0.00 0.00 0.00 88 1017.4
20260903074028 72 0 0.0 1.0 0.00 0.00 0.00 87 1017.3
20260903073851 72 218 0.0 0.0 0.00 0.00 0.00 87 1019.4
20260903073525 72 0 0.0 1.0 0.00 0.00 0.00 88 1017.3
20260903073049 72 0 0.0 1.0 0.00 0.00 0.00 87 1017.3
20260903072822 72 218 0.0 0.0 0.00 0.00 0.00 87 1019.3
20260903072524 72 0 0.0 1.0 0.00 0.00 0.00 87 1017.2
20260903072034 72 0 0.0 1.0 0.00 0.00 0.00 87 1017.2
20260903071842 72 218 0.0 0.0 0.00 0.00 0.00 87 1019.1
20260903071551 72 0 0.0 1.0 0.00 0.00 0.00 87 1017.2
20260903071023 72 0 0.0 0.0 0.00 0.00 0.00 87 1017.1
20260903070821 72 218 0.0 0.0 0.00 0.00 0.00 87 1019.1
20260903070523 72 0 0.0 0.0 0.00 0.00 0.00 87 1017.3
20260903070041 72 0 0.0 0.0 0.00 0.00 0.00 87 1017.4
20260903065836 72 218 0.0 0.0 0.00 0.00 0.00 87 1019.5
20260903065523 72 0 0.0 1.0 0.00 0.00 0.00 87 1017.3
20260903065024 72 0 0.0 2.0 0.00 0.00 0.00 87 1017.3
20260903064821 72 218 0.0 0.0 0.00 0.00 0.00 87 1019.4
20260903064551 72 0 0.0 2.0 0.00 0.00 0.00 87 1017.3
20260903064027 72 0 0.0 2.0 0.00 0.00 0.00 87 1017.4
20260903063812 73 218 0.0 1.0 0.00 0.00 0.00 87 1019.6
20260903063528 72 0 0.0 2.0 0.00 0.00 0.00 87 1017.4
20260903063047 72 0 0.0 2.0 0.00 0.00 0.00 87 1017.4
20260903062804 73 218 0.0 0.0 0.00 0.00 0.00 87 1019.4
20260903062524 72 218 1.0 2.0 0.00 0.00 0.00 87 1017.4
20260903062027 72 0 0.0 0.0 0.00 0.00 0.00 87 1017.3
20260903061807 73 218 0.0 0.0 0.00 0.00 0.00 87 1019.4
20260903061553 72 0 0.0 1.0 0.00 0.00 0.00 87 1017.3
20260903061025 72 0 0.0 2.0 0.00 0.00 0.00 87 1017.4
20260903060754 73 218 0.0 0.0 0.00 0.00 0.00 87 1019.4
20260903060525 72 218 0.0 2.0 0.00 0.00 0.00 87 1017.4
20260903060054 72 218 1.0 2.0 0.00 0.00 0.00 87 1017.5
20260903055726 73 218 0.0 0.0 0.00 0.00 0.00 87 1019.5
20260903055524 73 0 0.0 0.0 0.00 0.00 0.00 87 1017.4
20260903055025 73 0 0.0 0.0 0.00 0.00 0.00 87 1017.5
20260903054551 73 0 0.0 0.0 0.00 0.00 0.00 87 1017.5
20260903054024 73 0 0.0 1.0 0.00 0.00 0.00 87 1017.6
20260903053604 73 218 0.0 0.0 0.00 0.00 0.00 87 1019.5
20260903053525 73 0 0.0 1.0 0.00 0.00 0.00 87 1017.5
20260903053102 73 0 0.0 1.0 0.00 0.00 0.00 87 1017.5
20260903052602 74 218 0.0 0.0 0.00 0.00 0.00 87 1019.5
20260903052525 73 0 0.0 1.0 0.00 0.00 0.00 87 1017.5
20260903052025 73 218 0.0 1.0 0.00 0.00 0.00 87 1017.5
20260903051556 73 0 0.0 1.0 0.00 0.00 0.00 87 1017.4
20260903051028 73 218 0.0 1.0 0.00 0.00 0.00 87 1017.5
20260903050527 74 0 0.0 1.0 0.00 0.00 0.00 87 1017.6
20260903050435 74 218 0.0 0.0 0.00 0.00 0.00 87 1019.7
20260903050052 74 0 0.0 1.0 0.00 0.00 0.00 87 1017.6
20260903045524 74 0 0.0 1.0 0.00 0.00 0.00 87 1017.6
20260903045500 74 218 0.0 0.0 0.00 0.00 0.00 87 1019.6
20260903045027 74 218 0.0 1.0 0.00 0.00 0.00 87 1017.6
20260903044553 74 0 0.0 1.0 0.00 0.00 0.00 87 1017.6
20260903044024 74 0 0.0 1.0 0.00 0.00 0.00 87 1017.5
20260903043522 74 0 0.0 1.0 0.00 0.00 0.00 87 1017.5
20260903043326 74 218 0.0 0.0 0.00 0.00 0.00 87 1019.7
20260903043051 74 0 0.0 1.0 0.00 0.00 0.00 87 1017.5
20260903042529 74 0 0.0 1.0 0.00 0.00 0.00 87 1017.4
20260903042308 75 218 0.0 0.0 0.00 0.00 0.00 87 1019.5
20260903042024 74 218 0.0 1.0 0.00 0.00 0.00 87 1017.4
20260903041548 75 0 0.0 0.0 0.00 0.00 0.00 87 1017.5
20260903041332 75 218 0.0 0.0 0.00 0.00 0.00 87 1019.4
20260903041025 75 0 0.0 1.0 0.00 0.00 0.00 87 1017.3
20260903040524 75 0 0.0 2.0 0.00 0.00 0.00 87 1017.3
20260903040343 75 218 0.0 0.0 0.00 0.00 0.00 87 1019.4
20260903040047 75 218 0.0 2.0 0.00 0.00 0.00 87 1017.3
20260903035522 75 218 0.0 1.0 0.00 0.00 0.00 86 1017.4
20260903035325 75 218 0.0 0.0 0.00 0.00 0.00 86 1019.4
20260903035025 75 0 0.0 1.0 0.00 0.00 0.00 86 1017.4
20260903034542 75 193 0.0 1.0 0.00 0.00 0.00 86 1017.6
20260903034259 75 193 0.0 0.0 0.00 0.00 0.00 86 1019.6
20260903034023 75 0 0.0 0.0 0.00 0.00 0.00 86 1017.5
20260903033522 75 0 0.0 0.0 0.00 0.00 0.00 86 1017.8
20260903033230 75 193 0.0 0.0 0.00 0.00 0.00 86 1019.8
20260903033101 75 0 0.0 1.0 0.00 0.00 0.00 86 1017.7
20260903032528 75 0 0.0 2.0 0.00 0.00 0.00 86 1017.7
20260903032202 76 193 0.0 1.0 0.00 0.00 0.00 86 1019.9
20260903032025 75 193 0.0 2.0 0.00 0.00 0.00 86 1017.8
20260903031548 75 0 0.0 0.0 0.00 0.00 0.00 86 1017.8
20260903031202 76 193 0.0 0.0 0.00 0.00 0.00 86 1019.8
20260903031028 76 0 0.0 0.0 0.00 0.00 0.00 86 1017.7
20260903030528 76 0 0.0 0.0 0.00 0.00 0.00 86 1017.7
20260903030211 76 193 0.0 0.0 0.00 0.00 0.00 86 1019.7
20260903030054 76 0 0.0 0.0 0.00 0.00 0.00 86 1017.7
20260903025521 76 0 0.0 0.0 0.00 0.00 0.00 86 1017.9
20260903025234 76 193 0.0 0.0 0.00 0.00 0.00 86 1019.9
20260903025023 76 0 0.0 0.0 0.00 0.00 0.00 86 1017.9
20260903024551 76 0 0.0 0.0 0.00 0.00 0.00 86 1018.0
20260903024023 76 0 0.0 0.0 0.00 0.00 0.00 85 1018.1
20260903023528 77 0 0.0 1.0 0.00 0.00 0.00 85 1018.0
20260903023050 77 0 0.0 1.0 0.00 0.00 0.00 85 1018.0
20260903023030 77 193 0.0 0.0 0.00 0.00 0.00 85 1020.0
20260903022522 77 0 0.0 1.0 0.00 0.00 0.00 85 1018.0
20260903022049 78 193 0.0 0.0 0.00 0.00 0.00 85 1020.2
20260903022024 77 0 0.0 1.0 0.00 0.00 0.00 85 1018.1
20260903021553 77 0 0.0 1.0 0.00 0.00 0.00 85 1018.2
20260903021044 78 193 0.0 0.0 0.00 0.00 0.00 84 1020.3
20260903021023 78 0 0.0 1.0 0.00 0.00 0.00 84 1018.3
20260903020528 78 0 0.0 1.0 0.00 0.00 0.00 84 1018.2
20260903020047 78 0 0.0 1.0 0.00 0.00 0.00 84 1018.2
20260903020031 78 193 0.0 0.0 0.00 0.00 0.00 84 1020.3
20260903015524 78 0 0.0 1.0 0.00 0.00 0.00 84 1018.2
20260903015038 79 193 0.0 0.0 0.00 0.00 0.00 83 1020.2
20260903015023 78 0 0.0 1.0 0.00 0.00 0.00 83 1018.2
20260903014549 78 0 0.0 2.0 0.00 0.00 0.00 82 1018.2
20260903014023 79 0 0.0 2.0 0.00 0.00 0.00 82 1018.3
20260903014013 79 193 0.0 1.0 0.00 0.00 0.00 82 1020.3
20260903013523 79 193 0.0 2.0 0.00 0.00 0.00 82 1018.3
20260903013055 79 193 0.0 1.0 0.00 0.00 0.00 82 1018.3
20260903012524 79 0 0.0 0.0 0.00 0.00 0.00 82 1018.3
20260903012024 80 0 0.0 1.0 0.00 0.00 0.00 82 1018.2
20260903011843 80 193 0.0 0.0 0.00 0.00 0.00 81 1020.3
20260903011548 80 0 0.0 1.0 0.00 0.00 0.00 81 1018.1
20260903011024 80 0 0.0 1.0 0.00 0.00 0.00 80 1018.1
20260903010859 80 193 0.0 0.0 0.00 0.00 0.00 80 1020.2
20260903010526 80 193 0.0 0.0 0.00 0.00 0.00 81 1018.2
20260903005909 81 193 0.0 0.0 0.00 0.00 0.00 81 1020.0
20260903005523 81 0 0.0 0.0 0.00 0.00 0.00 81 1018.0
20260903005025 81 0 0.0 0.0 0.00 0.00 0.00 80 1017.9
20260903004933 81 193 0.0 0.0 0.00 0.00 0.00 80 1020.0
20260903004555 81 0 0.0 1.0 0.00 0.00 0.00 79 1017.9
20260903004025 81 0 0.0 1.0 0.00 0.00 0.00 79 1017.8
20260903003919 82 193 0.0 0.0 0.00 0.00 0.00 78 1019.8
20260903003526 81 0 0.0 1.0 0.00 0.00 0.00 78 1017.8
20260903003052 82 193 0.0 1.0 0.00 0.00 0.00 78 1017.7
20260903002903 83 193 0.0 0.0 0.00 0.00 0.00 78 1019.7
20260903002525 82 0 0.0 0.0 0.00 0.00 0.00 78 1017.6
20260903002025 83 0 0.0 0.0 0.00 0.00 0.00 77 1017.6
20260903001843 83 193 0.0 0.0 0.00 0.00 0.00 76 1019.6
20260903001545 83 0 0.0 0.0 0.00 0.00 0.00 76 1017.6
20260903001026 83 0 0.0 0.0 0.00 0.00 0.00 75 1017.6
20260903000833 84 193 0.0 0.0 0.00 0.00 0.00 75 1019.5
20260903000523 84 0 0.0 1.0 0.00 0.00 0.00 74 1017.5
20260903000058 84 0 0.0 1.0 0.00 0.00 0.00 73 1017.5
20260902235850 85 193 0.0 0.0 0.00 0.00 0.00 72 1019.5
20260902235525 85 0 0.0 2.0 0.00 0.00 0.00 71 1017.4
20260902235028 85 193 0.0 2.0 0.00 0.00 0.00 70 1017.4
20260902234905 86 193 0.0 0.0 0.00 0.00 0.00 69 1019.3
20260902234549 86 0 0.0 2.0 0.00 0.00 0.00 69 1017.3
20260902234024 87 193 0.0 2.0 0.00 0.00 0.00 67 1017.3
20260902233912 88 193 0.0 1.0 0.00 0.00 0.00 67 1019.3
20260902233525 88 0 0.0 2.0 0.00 0.00 0.00 65 1017.2
20260902233047 89 193 0.0 2.0 0.00 0.00 0.00 63 1017.2
20260902232837 89 193 0.0 1.0 0.00 0.00 0.00 62 1019.2
20260902232523 89 193 0.0 2.0 0.00 0.00 0.00 62 1017.1
20260902232024 90 0 0.0 2.0 0.00 0.00 0.00 61 1017.2
20260902231852 91 193 0.0 2.0 0.00 0.00 0.00 60 1019.1
20260902231549 91 193 1.0 2.0 0.00 0.00 0.00 58 1017.1
20260902231021 93 193 1.0 3.0 0.00 0.00 0.00 54 1017.1
20260902230911 93 193 1.0 3.0 0.00 0.00 0.00 52 1019.1
20260902230524 93 225 1.0 4.0 0.00 0.00 0.00 51 1017.1
20260902230052 93 195 1.0 4.0 0.00 0.00 0.00 50 1017.1
20260902225524 94 174 1.0 7.0 0.00 0.00 0.00 49 1017.0
20260902225025 94 207 3.0 7.0 0.00 0.00 0.00 48 1017.0
20260902224818 95 230 1.0 5.0 0.00 0.00 0.00 49 1019.0
20260902224547 95 245 2.0 6.0 0.00 0.00 0.00 48 1017.0
20260902224027 95 216 2.0 7.0 0.00 0.00 0.00 48 1016.8
20260902223751 96 196 2.0 7.0 0.00 0.00 0.00 47 1018.9
20260902223523 95 170 3.0 7.0 0.00 0.00 0.00 48 1016.9
20260902223057 95 203 2.0 8.0 0.00 0.00 0.00 47 1016.8
20260902222725 96 163 3.0 7.0 0.00 0.00 0.00 48 1018.9
20260902222523 95 215 2.0 8.0 0.00 0.00 0.00 46 1016.8
20260902222024 96 215 4.0 8.0 0.00 0.00 0.00 46 1016.9
20260902221612 96 232 2.0 7.0 0.00 0.00 0.00 46 1017.0
20260902221024 97 162 2.0 6.0 0.00 0.00 0.00 44 1017.0
20260902220524 97 214 1.0 4.0 0.00 0.00 0.00 46 1017.0
20260902220512 97 228 1.0 3.0 0.00 0.00 0.00 46 1019.0
20260902220054 97 160 2.0 4.0 0.00 0.00 0.00 44 1017.0
20260902215523 97 170 1.0 3.0 0.00 0.00 0.00 45 1016.9
20260902215516 97 170 1.0 4.0 0.00 0.00 0.00 45 1018.9
20260902215023 97 160 1.0 4.0 0.00 0.00 0.00 44 1017.0
20260902214540 97 199 1.0 6.0 0.00 0.00 0.00 44 1017.1
20260902214523 98 199 1.0 4.0 0.00 0.00 0.00 44 1019.1
20260902214024 97 0 1.0 6.0 0.00 0.00 0.00 43 1017.0
20260902213524 97 201 1.0 4.0 0.00 0.00 0.00 45 1017.0
20260902213516 97 180 1.0 3.0 0.00 0.00 0.00 45 1019.0
20260902213056 96 0 1.0 7.0 0.00 0.00 0.00 48 1017.1
20260902212524 97 228 2.0 7.0 0.00 0.00 0.00 47 1017.0
20260902212442 97 255 1.0 5.0 0.00 0.00 0.00 47 1019.1
20260902212025 97 0 2.0 6.0 0.00 0.00 0.00 43 1017.0
20260902211600 97 171 2.0 6.0 0.00 0.00 0.00 45 1017.1
20260902211443 98 168 1.0 5.0 0.00 0.00 0.00 43 1019.0
20260902211025 98 216 2.0 5.0 0.00 0.00 0.00 44 1017.0
20260902210523 98 133 1.0 5.0 0.00 0.00 0.00 43 1017.0
20260902210432 98 129 1.0 4.0 0.00 0.00 0.00 44 1019.0
20260902210057 97 207 2.0 5.0 0.00 0.00 0.00 44 1017.0
20260902205525 97 255 0.0 3.0 0.00 0.00 0.00 45 1016.9
20260902205421 97 255 0.0 4.0 0.00 0.00 0.00 45 1019.0
20260902205025 96 36 2.0 5.0 0.00 0.00 0.00 43 1017.1
20260902204550 97 0 1.0 7.0 0.00 0.00 0.00 44 1017.0
20260902204410 97 247 2.0 7.0 0.00 0.00 0.00 45 1019.1
20260902204024 97 276 2.0 8.0 0.00 0.00 0.00 43 1017.1
20260902203524 98 254 2.0 9.0 0.00 0.00 0.00 42 1017.1
20260902203338 98 218 3.0 7.0 0.00 0.00 0.00 43 1019.2
20260902203049 98 195 2.0 9.0 0.00 0.00 0.00 44 1017.2
20260902202524 98 214 3.0 7.0 0.00 0.00 0.00 42 1017.1
20260902202333 98 234 2.0 5.0 0.00 0.00 0.00 43 1019.2
20260902202024 98 266 2.0 6.0 0.00 0.00 0.00 42 1017.1
20260902201603 98 336 2.0 8.0 0.00 0.00 0.00 44 1017.2
20260902201354 98 139 2.0 7.0 0.00 0.00 0.00 44 1019.2
20260902201024 98 185 4.0 9.0 0.00 0.00 0.00 44 1017.2
20260902200526 98 102 2.0 9.0 0.00 0.00 0.00 43 1017.3
20260902200412 98 89 3.0 7.0 0.00 0.00 0.00 43 1019.4
20260902195528 98 280 2.0 7.0 0.00 0.00 0.00 46 1017.4
20260902195357 98 218 2.0 5.0 0.00 0.00 0.00 45 1019.4
20260902195025 97 105 2.0 6.0 0.00 0.00 0.00 43 1017.5
20260902194550 97 189 2.0 6.0 0.00 0.00 0.00 44 1017.6
20260902194355 97 216 1.0 4.0 0.00 0.00 0.00 44 1019.6
20260902194029 97 0 1.0 4.0 0.00 0.00 0.00 43 1017.7
20260902193521 97 226 2.0 4.0 0.00 0.00 0.00 44 1017.8
20260902193341 98 197 1.0 3.0 0.00 0.00 0.00 43 1019.8
20260902193042 97 185 1.0 4.0 0.00 0.00 0.00 45 1017.8
20260902192526 97 195 1.0 6.0 0.00 0.00 0.00 45 1017.9
20260902192320 98 204 1.0 4.0 0.00 0.00 0.00 45 1020.0
20260902192025 97 102 1.0 6.0 0.00 0.00 0.00 43 1017.9
20260902191553 97 149 0.0 4.0 0.00 0.00 0.00 44 1017.9
20260902191332 98 33 1.0 7.0 0.00 0.00 0.00 43 1020.0
20260902191024 98 189 1.0 8.0 0.00 0.00 0.00 45 1018.0
20260902190524 97 260 1.0 8.0 0.00 0.00 0.00 46 1018.1
20260902190316 98 312 1.0 7.0 0.00 0.00 0.00 45 1020.1
20260902190053 97 229 2.0 8.0 0.00 0.00 0.00 46 1018.1
20260902185525 97 199 1.0 8.0 0.00 0.00 0.00 45 1018.1
20260902185025 97 222 2.0 9.0 0.00 0.00 0.00 46 1018.1
20260902184544 97 253 4.0 9.0 0.00 0.00 0.00 45 1018.2
20260902184115 97 226 3.0 8.0 0.00 0.00 0.00 45 1020.2
20260902184023 97 215 3.0 9.0 0.00 0.00 0.00 44 1018.3
20260902183524 96 234 5.0 9.0 0.00 0.00 0.00 44 1018.3
20260902183118 97 163 2.0 5.0 0.00 0.00 0.00 44 1020.4
20260902183056 96 209 1.0 6.0 0.00 0.00 0.00 47 1018.3